Location: Morlupo
(42.1333°N, 12.5000°E)
Time: 15:52:25
(UTC+00:00)

Cosmos 468 - Pass Details

Date: 18 September 2020
Orbit: 761 x 784 km, 74.0° (Epoch: 25 October)

Event Time Altitude Azimuth Distance (km) Brightness Sun altitude
Rises 19:11:27 0° 340° (NNW) 3,277 8.4 -22.0°
Reaches altitude 10° 19:13:51 10° 342° (NNW) 2,347 7.5 -22.4°
Maximum altitude 19:19:12 81° 69° (ENE) 798 4.4 -23.3°
Enters shadow 19:20:20 57° 147° (SSE) 922 4.5 -23.5°
